Page, AZ

12:26 AM MST on December 18, 2017 (GMT -0700)
Page Municipal

Weather History for KPGA - July, 2013

Change the Weather History Date:

Tuesday, July 9, 2013

  Actual Average Record
Temperature  
Mean Temperature 90 °F -  
Max Temperature 104 °F 95 °F 106 °F (1976)
Min Temperature 75 °F 68 °F 60 °F (1992)
Cooling Degree Days 24    
Growing Degree Days 40 (Base 50)    
Moisture  
Dew Point 30 °F    
Average Humidity 11    
Maximum Humidity 20    
Minimum Humidity 4    
Precipitation  
Precipitation 0.00 in - - ()
Sea Level Pressure  
Sea Level Pressure 29.87 in    
Wind  
Wind Speed 4 mph (WNW)    
Max Wind Speed 14 mph    
Max Gust Speed 24 mph    
Visibility 10 miles    
Events      
Averages and records for this station are not official NWS values.
T = Trace of Precipitation, MM = Missing Value Source: NWS Daily Summary

Daily Weather History Graph

Daily Weather History Graph

Search for Another Location

Airport or City:

Trip Planner

Search our weather history database for the weather conditions in past years. The results will help you decide how hot, cold, wet, or windy it might be!

Date:

Astronomy

Jul. 09, 2013 Rise Set
Actual Time 5:14 AM MST 7:47 PM MST
Civil Twilight 4:44 AM MST 8:17 PM MST
Nautical Twilight 4:06 AM MST 8:55 PM MST
Astronomical Twilight 3:24 AM MST 9:36 PM MST
Moon 6:38 AM MST (7/9) 8:30 PM MST (7/9)
Length of Visible Light 15h 33m
Length of Day
14h 32m
New Moon, 2% of the Moon is Illuminated
Jul 9
New Moon
Jul 15
First Quarter
Jul 22
Full
Jul 29
Last Quarter
Aug 6
New

Hourly Weather History & Observations

Time (MST) Temp. Dew Point Humidity Pressure Visibility Wind Dir Wind Speed Gust Speed Precip Events Conditions
12:53 AM 86.0 °F 32.0 °F 14% 29.86 in 10.0 mi WNW 3.5 mph - N/A   Clear
1:53 AM 82.9 °F 34.0 °F 17% 29.86 in 10.0 mi West 3.5 mph - N/A   Clear
2:53 AM 81.0 °F 33.1 °F 18% 29.87 in 10.0 mi WSW 4.6 mph - N/A   Clear
3:53 AM 82.0 °F 33.1 °F 17% 29.87 in 10.0 mi WSW 4.6 mph - N/A   Clear
4:53 AM 81.0 °F 33.1 °F 18% 29.88 in 10.0 mi SW 4.6 mph - N/A   Clear
5:53 AM 79.0 °F 35.1 °F 20% 29.92 in 10.0 mi Calm Calm - N/A   Clear
6:53 AM 79.0 °F 34.0 °F 20% 29.95 in 10.0 mi Calm Calm - N/A   Clear
7:53 AM 84.0 °F 35.1 °F 17% 29.96 in 10.0 mi Calm Calm - N/A   Clear
8:53 AM 88.0 °F 30.9 °F 13% 29.96 in 10.0 mi NNE 3.5 mph - N/A   Clear
9:53 AM 90.0 °F 30.0 °F 12% 29.95 in 10.0 mi Calm Calm - N/A   Clear
10:53 AM 93.9 °F 28.0 °F 10% 29.94 in 10.0 mi Calm Calm - N/A   Clear
11:53 AM 98.1 °F 27.0 °F 8% 29.92 in 10.0 mi Variable 5.8 mph - N/A   Clear
12:53 PM 100.0 °F 26.1 °F 7% 29.89 in 10.0 mi North 9.2 mph - N/A   Clear
1:53 PM 102.0 °F 24.1 °F 6% 29.87 in 10.0 mi Variable 3.5 mph - N/A   Clear
2:53 PM 102.0 °F 26.1 °F 7% 29.85 in 10.0 mi WNW 4.6 mph - N/A   Clear
3:53 PM 102.0 °F 28.0 °F 7% 29.82 in 10.0 mi NW 9.2 mph 24.2 mph N/A   Clear
4:53 PM 102.9 °F 27.0 °F 7% 29.81 in 10.0 mi WNW 9.2 mph 20.7 mph N/A   Clear
5:53 PM 102.0 °F 26.1 °F 7% 29.80 in 10.0 mi NW 13.8 mph 19.6 mph N/A   Clear
6:53 PM 100.0 °F 28.0 °F 8% 29.80 in 10.0 mi NW 10.4 mph 19.6 mph N/A   Clear
7:53 PM 97.0 °F 30.0 °F 9% 29.81 in 10.0 mi NW 9.2 mph - N/A   Clear
8:53 PM 93.9 °F 30.0 °F 10% 29.82 in 10.0 mi WNW 5.8 mph - N/A   Clear
9:53 PM 91.9 °F 27.0 °F 10% 29.83 in 10.0 mi WNW 5.8 mph - N/A   Clear
10:53 PM 88.0 °F 28.9 °F 12% 29.84 in 10.0 mi Calm Calm - N/A   Clear
11:53 PM 89.1 °F 27.0 °F 11% 29.83 in 10.0 mi NW 5.8 mph - N/A   Clear